N361MK KCCO-KATL

Flight info

Callsign N361MK
Flight time N/A
Altitude 3500
Route DIRECT
Aircraft PA28/L-G/S

Departure

Time 2026-05-03 23:09
Airport Newnan Coweta County Airport (KCCO)

Arrival

Time N/A
Airport Hartsfield Jackson Atlanta International Airport (KATL)
Time Latitude Longitude Altitude Speed Heading
2026-05-03 22:33 33.30645 -84.76455 938 ft 0 kts 319°
2026-05-03 22:46 33.30567 -84.76461 937 ft 0 kts 289°
2026-05-03 22:46 33.30791 -84.76834 947 ft 0 kts 317°
2026-05-03 23:02 33.30808 -84.76837 947 ft 11 kts 23°
2026-05-03 23:02 33.30795 -84.76724 946 ft 19 kts 150°
2026-05-03 23:03 33.30683 -84.76623 943 ft 23 kts 140°
2026-05-03 23:03 33.30571 -84.76507 938 ft 13 kts 140°
2026-05-03 23:03 33.30555 -84.76491 937 ft 0 kts 138°
2026-05-03 23:07 33.30548 -84.76450 937 ft 9 kts 57°
2026-05-03 23:07 33.30599 -84.76405 937 ft 3 kts 339°
2026-05-03 23:07 33.30627 -84.76442 938 ft 22 kts 303°
2026-05-03 23:08 33.30818 -84.76656 945 ft 55 kts 330°
2026-05-03 23:08 33.31207 -84.77015 987 ft 81 kts 319°
2026-05-03 23:08 33.31587 -84.77467 1240 ft 76 kts 311°
2026-05-03 23:08 33.32019 -84.77882 1521 ft 75 kts 321°
2026-05-03 23:09 33.32438 -84.78242 1940 ft 67 kts 332°
2026-05-03 23:09 33.32825 -84.78623 2078 ft 73 kts 315°
2026-05-03 23:09 33.33161 -84.79095 2248 ft 79 kts 315°
2026-05-03 23:09 33.33564 -84.79522 2429 ft 73 kts 337°
2026-05-03 23:10 33.33963 -84.79895 2555 ft 75 kts 325°
2026-05-03 23:10 33.34318 -84.80358 2598 ft 76 kts 321°
2026-05-03 23:10 33.34688 -84.80813 2634 ft 78 kts 321°
2026-05-03 23:10 33.35065 -84.81273 2643 ft 77 kts 319°
2026-05-03 23:11 33.35446 -84.81719 2664 ft 76 kts 325°
2026-05-03 23:11 33.35806 -84.82182 2674 ft 75 kts 317°
2026-05-03 23:11 33.36152 -84.82655 2755 ft 72 kts 320°
2026-05-03 23:11 33.36520 -84.83029 2577 ft 71 kts 328°
2026-05-03 23:12 33.36896 -84.83385 2484 ft 71 kts 327°
2026-05-03 23:12 33.37179 -84.83877 2393 ft 71 kts 303°
2026-05-03 23:12 33.37507 -84.84310 2236 ft 77 kts 348°
2026-05-03 23:12 33.37974 -84.84076 2332 ft 82 kts 43°
2026-05-03 23:13 33.38078 -84.83354 2403 ft 98 kts 101°
2026-05-03 23:13 33.37642 -84.82725 2540 ft 104 kts 144°
2026-05-03 23:13 33.36961 -84.82448 2618 ft 106 kts 187°
2026-05-03 23:13 33.36416 -84.82872 2820 ft 86 kts 262°
2026-05-03 23:14 33.36241 -84.83524 3058 ft 84 kts 264°
2026-05-03 23:14 33.36098 -84.84171 3295 ft 80 kts 268°
2026-05-03 23:14 33.35906 -84.84865 3431 ft 88 kts 259°
2026-05-03 23:14 33.35736 -84.85512 3533 ft 84 kts 268°
2026-05-03 23:15 33.35546 -84.86206 3626 ft 84 kts 263°
2026-05-03 23:15 33.35384 -84.86885 3581 ft 89 kts 264°
2026-05-03 23:15 33.35174 -84.87602 3659 ft 89 kts 264°
2026-05-03 23:15 33.34982 -84.88338 3722 ft 92 kts 270°
2026-05-03 23:16 33.34852 -84.88988 3691 ft 105 kts 264°
2026-05-03 23:16 33.34659 -84.89831 3679 ft 111 kts 265°
2026-05-03 23:16 33.34497 -84.90736 3719 ft 111 kts 263°
2026-05-03 23:16 33.34453 -84.91604 3649 ft 103 kts 302°
2026-05-03 23:17 33.34959 -84.92058 3700 ft 87 kts 351°
2026-05-03 23:17 33.35555 -84.91796 3592 ft 103 kts 43°
2026-05-03 23:17 33.35784 -84.90955 3568 ft 107 kts 80°
2026-05-03 23:17 33.35772 -84.90361 3569 ft 110 kts 90°
2026-05-03 23:18 33.35745 -84.89438 3536 ft 114 kts 84°
2026-05-03 23:18 33.35687 -84.88509 3565 ft 112 kts 84°
2026-05-03 23:18 33.35676 -84.87575 3586 ft 112 kts 86°
2026-05-03 23:18 33.35668 -84.86648 3622 ft 114 kts 81°
2026-05-03 23:19 33.35615 -84.85675 3616 ft 124 kts 85°
2026-05-03 23:19 33.35612 -84.84648 3638 ft 125 kts 84°
2026-05-03 23:19 33.35593 -84.83618 3680 ft 125 kts 88°
2026-05-03 23:19 33.35554 -84.82565 3690 ft 127 kts 85°
2026-05-03 23:20 33.35556 -84.81496 3678 ft 130 kts 84°
2026-05-03 23:20 33.35529 -84.80409 3695 ft 128 kts 88°
2026-05-03 23:20 33.35488 -84.79365 3624 ft 126 kts 86°
2026-05-03 23:20 33.35444 -84.78336 3616 ft 124 kts 86°
2026-05-03 23:21 33.35395 -84.77319 3604 ft 121 kts 89°
2026-05-03 23:21 33.35230 -84.76320 3599 ft 119 kts 82°
2026-05-03 23:21 33.35221 -84.75335 3565 ft 120 kts 86°
2026-05-03 23:21 33.35190 -84.74353 3615 ft 114 kts 83°
2026-05-03 23:22 33.35195 -84.72417 3731 ft 118 kts 86°
2026-05-03 23:22 33.35156 -84.71415 3762 ft 120 kts 85°
2026-05-03 23:22 33.35166 -84.70383 3693 ft 123 kts 77°
2026-05-03 23:23 33.35155 -84.69371 3667 ft 118 kts 83°
2026-05-03 23:23 33.35137 -84.68376 3587 ft 120 kts 88°
2026-05-03 23:23 33.35123 -84.67398 3577 ft 114 kts 83°
2026-05-03 23:23 33.35106 -84.66433 3564 ft 117 kts 86°
2026-05-03 23:24 33.35089 -84.65445 3587 ft 122 kts 85°
2026-05-03 23:24 33.35096 -84.64438 3640 ft 117 kts 83°
2026-05-03 23:24 33.35090 -84.63453 3644 ft 119 kts 86°
2026-05-03 23:24 33.35046 -84.62464 3602 ft 120 kts 89°
2026-05-03 23:25 33.34996 -84.61448 3654 ft 123 kts 86°
2026-05-03 23:25 33.34971 -84.60448 3641 ft 120 kts 87°
2026-05-03 23:25 33.34918 -84.59455 3589 ft 119 kts 81°
2026-05-03 23:25 33.34921 -84.58493 3558 ft 116 kts 83°
2026-05-03 23:26 33.34925 -84.57532 3563 ft 116 kts 83°
2026-05-03 23:26 33.34915 -84.56559 3554 ft 119 kts 85°
2026-05-03 23:26 33.34912 -84.55544 3639 ft 123 kts 85°
2026-05-03 23:26 33.34883 -84.54545 3665 ft 118 kts 86°
2026-05-03 23:27 33.34838 -84.53556 3577 ft 120 kts 87°
2026-05-03 23:27 33.34830 -84.52563 3555 ft 121 kts 88°
2026-05-03 23:27 33.34817 -84.51567 3536 ft 120 kts 85°
2026-05-03 23:27 33.34925 -84.50621 3557 ft 109 kts 55°
2026-05-03 23:28 33.35506 -84.50206 3542 ft 95 kts 356°
2026-05-03 23:28 33.36163 -84.50229 3483 ft 98 kts 354°
2026-05-03 23:28 33.36838 -84.50262 3461 ft 97 kts 355°
2026-05-03 23:28 33.37496 -84.50303 3467 ft 93 kts 356°
2026-05-03 23:29 33.38154 -84.50335 3505 ft 96 kts 355°
2026-05-03 23:29 33.38827 -84.50350 3493 ft 96 kts 354°
2026-05-03 23:29 33.39503 -84.50407 3484 ft 98 kts 358°
2026-05-03 23:29 33.40188 -84.50444 3485 ft 98 kts 353°
2026-05-03 23:30 33.40870 -84.50499 3468 ft 101 kts 354°
2026-05-03 23:30 33.41558 -84.50546 3534 ft 96 kts 355°
2026-05-03 23:30 33.42215 -84.50584 3478 ft 97 kts 355°
2026-05-03 23:30 33.42893 -84.50597 3471 ft 97 kts 355°
2026-05-03 23:31 33.43573 -84.50624 3519 ft 98 kts 355°
2026-05-03 23:31 33.44271 -84.50707 3522 ft 102 kts 352°
2026-05-03 23:31 33.44957 -84.50799 3632 ft 99 kts 345°
2026-05-03 23:31 33.45672 -84.50960 3603 ft 107 kts 348°
2026-05-03 23:32 33.46417 -84.51036 3626 ft 102 kts 356°
2026-05-03 23:32 33.47127 -84.51052 3617 ft 99 kts 356°
2026-05-03 23:32 33.51192 -84.50955 3567 ft 4574 kts
2026-05-03 23:32 33.57491 -84.36840 3598 ft 95 kts 358°
2026-05-03 23:33 33.58145 -84.36809 3405 ft 91 kts 355°
2026-05-03 23:33 33.58773 -84.36857 3180 ft 89 kts 355°
2026-05-03 23:33 33.59389 -84.36939 2987 ft 0 kts 346°
2026-05-03 23:33 33.62440 -84.37910 2868 ft 89 kts 323°
2026-05-03 23:34 33.62932 -84.38481 2379 ft 102 kts 315°
2026-05-03 23:34 33.63292 -84.39206 1885 ft 110 kts 293°
2026-05-03 23:34 33.63467 -84.40129 1318 ft 116 kts 271°
2026-05-03 23:34 33.63463 -84.41027 1160 ft 106 kts 270°
2026-05-03 23:35 33.63468 -84.41851 1057 ft 92 kts 275°
2026-05-03 23:35 33.63589 -84.42497 1001 ft 56 kts 272°